TimeMST,TemperatureF,Dew PointF,Humidity,Sea Level PressureIn,VisibilityMPH,Wind Direction,Wind SpeedMPH,Gust SpeedMPH,PrecipitationIn,Events,Conditions,WindDirDegrees,DateUTC
12:53 AM,27.0,12.0,53,30.15,10.0,SSW,8.1,-,N/A,,Clear,200,2013-01-25 07:53:00
1:53 AM,30.9,10.9,43,30.17,10.0,WNW,12.7,-,N/A,,Clear,290,2013-01-25 08:53:00
2:53 AM,26.1,10.9,53,30.18,10.0,South,4.6,-,N/A,,Clear,180,2013-01-25 09:53:00
3:53 AM,28.9,12.0,49,30.18,10.0,SW,5.8,-,N/A,,Clear,220,2013-01-25 10:53:00
4:53 AM,34.0,14.0,44,30.18,10.0,ESE,4.6,-,N/A,,Clear,110,2013-01-25 11:53:00
5:53 AM,27.0,10.9,51,30.23,10.0,WNW,11.5,-,N/A,,Clear,300,2013-01-25 12:53:00
6:53 AM,28.0,12.9,53,30.24,10.0,North,6.9,-,N/A,,Clear,10,2013-01-25 13:53:00
7:53 AM,28.9,15.1,56,30.30,10.0,NNE,4.6,-,N/A,,Clear,20,2013-01-25 14:53:00
8:53 AM,39.0,19.9,46,30.27,10.0,NE,3.5,-,N/A,,Clear,40,2013-01-25 15:53:00
9:53 AM,41.0,21.0,45,30.27,10.0,ESE,3.5,-,N/A,,Clear,120,2013-01-25 16:53:00
10:53 AM,41.0,19.9,43,30.27,10.0,SE,3.5,-,N/A,,Clear,130,2013-01-25 17:53:00
11:53 AM,46.0,19.9,35,30.20,10.0,ENE,3.5,-,N/A,,Clear,60,2013-01-25 18:53:00
12:53 PM,53.1,21.9,30,30.13,10.0,ESE,8.1,-,N/A,,Clear,120,2013-01-25 19:53:00
1:53 PM,55.9,23.0,28,30.07,10.0,ESE,15.0,-,N/A,,Clear,110,2013-01-25 20:53:00
2:53 PM,60.1,24.1,25,30.04,10.0,SE,12.7,-,N/A,,Clear,140,2013-01-25 21:53:00
3:53 PM,59.0,24.1,26,30.01,10.0,SE,17.3,-,N/A,,Clear,140,2013-01-25 22:53:00
4:53 PM,55.0,24.1,30,30.01,10.0,ESE,13.8,-,N/A,,Clear,110,2013-01-25 23:53:00
5:53 PM,48.0,23.0,37,30.04,10.0,ESE,12.7,-,N/A,,Clear,110,2013-01-26 00:53:00
6:53 PM,46.9,21.9,37,30.04,10.0,South,8.1,-,N/A,,Clear,170,2013-01-26 01:53:00
7:53 PM,48.0,18.0,30,30.03,10.0,SW,13.8,-,N/A,,Clear,230,2013-01-26 02:53:00
8:53 PM,46.9,19.0,33,30.02,10.0,WSW,16.1,-,N/A,,Clear,240,2013-01-26 03:53:00
9:53 PM,41.0,19.0,41,30.03,10.0,WSW,9.2,-,N/A,,Clear,250,2013-01-26 04:53:00
10:53 PM,36.0,19.0,50,30.07,10.0,WNW,5.8,-,N/A,,Clear,290,2013-01-26 05:53:00
11:53 PM,34.0,19.0,54,30.04,10.0,West,11.5,-,N/A,,Clear,280,2013-01-26 06:53:00